7 * 24
多渠道服务支持
STARLINK-35203是美国SpaceX公司星链星座的一颗低轨通信卫星,于2025年9月5日由猎鹰9号火箭从肯尼迪航天中心发射入轨。它是SpaceX星链星座的成员,依托星链成熟的相控阵通信技术,为全球偏远区域、地面网络覆盖盲区提供高速宽带互联网接入服务,也可直接支持手机直连卫星的通信服务,属于第二代星链卫星星座部署的一员,支撑全球宽带卫星通信网络的规模扩展。
美国
(US)
| 数据来源 | 国际轨道数据 |
| 星历时间: | 2026-04-29T08:47:55+0800 7小时前 查看轨道信息 |
| 半长轴: | 6853.35km |
| 偏心率: | 0.0001163 |
| 轨道倾角: | 53.161° |
| 近地点辐角 | 85.460° |
| 升交点赤经 | 37.460° |
| 平近点角 | 274.654° |
| 近地点: | 474.415km |
| 远地点: | 476.011km |
| 周期: | 94.105分钟 |
| 每日圈数: | 15.302009 |